Date String (YYYY-MM-DD hh:mm:ss) UTC,Instrument flags,Ambient pressure (hPa),Sample flow (lpm),Bypass flow (lpm),Sample temperature (°C),Ambient temperature (°C),ASC tube jacket temperature (°C),LED temperature (°C),Box temperature (°C),Sample RH (%),Span deviation,Mass concentration (μg/m³),Mass concentration (μg/m³),Mass concentration (μg/m³)
DateTimeUTC,F1_M11,P_M11,Q1_M11,Q2_M11,T1_M11,T2_M11,T3_M11,T4_M11,T5_M11,U1_M11,ZSPAN_M11,X0_M11,X2_M11,X1_M11
2022-11-01 10:00:00,,0824.0,5.00,0.00,27.2,25.3,00.0,36.2,28.9,09.6,0000.0,0005.70,0002.99,0002.48
2022-11-01 10:01:00,,0824.0,5.00,0.00,27.2,25.3,00.0,36.2,28.9,09.6,0000.0,0005.52,0003.00,0002.48
2022-11-01 10:02:00,,0824.0,5.00,0.00,27.1,25.3,00.0,36.1,28.8,09.6,0000.0,0005.30,0002.95,0002.48
2022-11-01 10:03:00,,0824.0,5.01,0.00,27.1,25.3,00.0,36.1,28.8,09.6,0000.0,0005.23,0002.93,0002.47
2022-11-01 10:04:00,,0824.0,5.01,0.00,27.1,25.3,00.0,36.1,28.7,09.6,0000.0,0005.15,0002.90,0002.46
2022-11-01 10:05:00,,0824.0,5.00,0.00,27.1,25.3,00.0,36.1,28.8,09.6,0000.0,0004.93,0002.86,0002.42
2022-11-01 10:06:00,,0823.9,4.99,0.00,27.1,25.3,00.0,36.1,28.8,09.6,0000.0,0004.78,0002.80,0002.38
2022-11-01 10:07:00,,0824.0,4.99,0.00,27.1,25.3,00.0,36.1,28.8,09.7,0000.0,0004.64,0002.74,0002.35
2022-11-01 10:08:00,,0824.0,5.00,0.00,27.1,25.2,00.0,36.1,28.7,09.7,0000.0,0004.47,0002.67,0002.33
2022-11-01 10:09:00,,0824.0,5.00,0.00,27.1,25.2,00.0,36.1,28.7,09.7,0000.0,0004.35,0002.65,0002.32
2022-11-01 10:10:00,,0824.0,5.00,0.00,27.0,25.2,00.0,36.0,28.7,09.6,0000.0,0003.82,0002.68,0002.32
2022-11-01 10:11:00,,0823.9,5.01,0.00,27.0,25.2,00.0,36.0,28.7,09.6,0000.0,0003.50,0002.67,0002.33
2022-11-01 10:12:00,,0823.9,5.00,0.00,27.0,25.2,00.0,36.0,28.8,09.6,0000.0,0003.54,0002.69,0002.36
2022-11-01 10:13:00,,0823.9,4.99,0.00,27.0,25.2,00.0,36.0,28.8,09.6,0000.0,0003.64,0002.74,0002.38
2022-11-01 10:14:00,,0823.9,4.99,0.00,27.0,25.2,00.0,36.0,28.7,09.6,0000.0,0004.03,0002.81,0002.42
2022-11-01 10:15:00,,0823.9,5.00,0.00,27.0,25.2,00.0,36.0,28.7,09.6,0000.0,0004.72,0002.86,0002.45
2022-11-01 10:16:00,,0824.0,5.01,0.00,27.0,25.2,00.0,36.0,28.6,09.7,0000.0,0004.83,0002.89,0002.47
2022-11-01 10:17:00,,0823.9,5.00,0.00,27.0,25.1,00.0,36.0,28.6,09.7,0000.0,0004.76,0002.90,0002.51
2022-11-01 10:18:00,,0824.0,5.00,0.00,27.0,25.1,00.0,35.9,28.6,09.7,0000.0,0004.78,0002.92,0002.54
2022-11-01 10:19:00,,0823.9,5.00,0.00,26.9,25.1,00.0,35.9,28.6,09.7,0000.0,0004.93,0002.97,0002.55
2022-11-01 10:20:00,,0823.9,5.00,0.00,26.9,25.1,00.0,35.9,28.6,09.7,0000.0,0005.03,0002.99,0002.54
2022-11-01 10:21:00,,0824.0,4.99,0.00,26.9,25.1,00.0,35.9,28.6,09.8,0000.0,0004.98,0002.97,0002.53
2022-11-01 10:22:00,,0824.0,5.00,0.00,26.9,25.1,00.0,35.9,28.6,09.8,0000.0,0005.00,0002.97,0002.52
2022-11-01 10:23:00,,0823.9,5.01,0.00,26.9,25.1,00.0,35.9,28.6,09.8,0000.0,0004.91,0002.96,0002.51
2022-11-01 10:24:00,,0824.0,5.01,0.00,26.9,25.1,00.0,35.9,28.6,09.8,0000.0,0005.01,0002.95,0002.49
2022-11-01 10:25:00,,0823.9,4.99,0.00,26.9,25.1,00.0,35.9,28.6,09.8,0000.0,0004.77,0002.92,0002.47
2022-11-01 10:26:00,,0823.9,4.99,0.00,26.9,25.1,00.0,35.9,28.6,09.7,0000.0,0004.06,0002.91,0002.45
2022-11-01 10:27:00,,0824.0,5.01,0.00,26.9,25.1,00.0,35.8,28.6,09.7,0000.0,0003.98,0002.92,0002.45
2022-11-01 10:28:00,,0823.9,5.01,0.00,26.9,25.1,00.0,35.8,28.6,09.8,0000.0,0004.52,0002.98,0002.46
2022-11-01 10:29:00,,0824.0,5.00,0.00,26.9,25.1,00.0,35.8,28.6,09.8,0000.0,0004.61,0003.01,0002.45
2022-11-01 10:30:00,,0824.0,4.99,0.00,26.9,25.1,00.0,35.8,28.5,09.8,0000.0,0004.64,0003.01,0002.44
2022-11-01 10:31:00,,0824.0,4.99,0.00,26.8,25.0,00.0,35.8,28.6,09.8,0000.0,0004.66,0003.02,0002.45
2022-11-01 10:32:00,,0824.0,5.01,0.00,26.8,25.0,00.0,35.8,28.5,09.8,0000.0,0004.68,0003.03,0002.45
2022-11-01 10:33:00,,0823.9,5.00,0.00,26.8,25.0,00.0,35.8,28.5,09.8,0000.0,0004.58,0003.00,0002.44
2022-11-01 10:34:00,,0823.9,5.00,0.00,26.8,25.0,00.0,35.8,28.6,09.8,0000.0,0004.46,0002.97,0002.44
2022-11-01 10:35:00,,0823.9,5.00,0.00,26.8,25.0,00.0,35.8,28.5,09.8,0000.0,0004.31,0002.94,0002.43
2022-11-01 10:36:00,,0824.0,5.00,0.00,26.8,25.0,00.0,35.8,28.5,09.8,0000.0,0004.34,0002.93,0002.42
2022-11-01 10:37:00,,0824.0,5.00,0.00,26.8,25.0,00.0,35.8,28.5,09.7,0000.0,0004.34,0002.92,0002.43
2022-11-01 10:38:00,,0824.0,5.01,0.00,26.8,25.0,00.0,35.8,28.5,09.7,0000.0,0004.49,0002.94,0002.44
2022-11-01 10:39:00,,0824.0,5.00,0.00,26.8,25.0,00.0,35.7,28.6,09.8,0000.0,0004.01,0002.89,0002.43
2022-11-01 10:40:00,,0824.0,5.00,0.00,26.8,25.0,00.0,35.7,28.5,09.8,0000.0,0004.59,0002.88,0002.42
2022-11-01 10:41:00,,0824.0,5.00,0.00,26.8,25.0,00.0,35.7,28.5,09.9,0000.0,0004.48,0002.83,0002.40
2022-11-01 10:42:00,,0824.0,5.01,0.00,26.8,25.0,00.0,35.7,28.5,09.9,0000.0,0004.36,0002.77,0002.37
2022-11-01 10:43:00,,0824.0,5.00,0.00,26.7,25.0,00.0,35.7,28.4,09.9,0000.0,0004.28,0002.74,0002.36
2022-11-01 10:44:00,,0824.0,5.00,0.00,26.7,25.0,00.0,35.7,28.4,09.9,0000.0,0004.27,0002.74,0002.36
2022-11-01 10:45:00,,0824.0,5.00,0.00,26.7,24.9,00.0,35.7,28.5,09.9,0000.0,0004.63,0002.76,0002.37
2022-11-01 10:46:00,,0824.0,5.00,0.00,26.7,24.9,00.0,35.7,28.4,09.9,0000.0,0005.05,0002.72,0002.36
2022-11-01 10:47:00,,0824.0,5.00,0.00,26.7,24.9,00.0,35.7,28.4,09.9,0000.0,0005.17,0002.72,0002.34
2022-11-01 10:48:00,,0824.0,5.02,0.00,26.7,24.9,00.0,35.7,28.4,09.9,0000.0,0005.16,0002.72,0002.33
2022-11-01 10:49:00,,0824.0,4.99,0.00,26.7,24.9,00.0,35.7,28.4,09.9,0000.0,0005.07,0002.71,0002.32
2022-11-01 10:50:00,,0824.0,5.00,0.00,26.7,24.9,00.0,35.7,28.4,09.8,0000.0,0005.18,0002.72,0002.33
2022-11-01 10:51:00,,0824.0,5.00,0.00,26.7,24.9,00.0,35.6,28.4,09.8,0000.0,0004.61,0002.73,0002.36
2022-11-01 10:52:00,,0824.0,5.00,0.00,26.7,24.9,00.0,35.6,28.4,09.7,0000.0,0004.85,0002.78,0002.41
2022-11-01 10:53:00,,0824.0,5.01,0.00,26.7,24.9,00.0,35.6,28.4,09.8,0000.0,0006.41,0002.85,0002.47
2022-11-01 10:54:00,,0824.0,5.00,0.00,26.7,24.9,00.0,35.6,28.4,09.8,0000.0,0006.71,0002.90,0002.49
2022-11-01 10:55:00,,0824.0,5.00,0.00,26.6,24.8,00.0,35.6,28.4,09.9,0000.0,0007.62,0002.95,0002.51
2022-11-01 10:56:00,,0824.1,5.00,0.00,26.6,24.9,00.0,35.6,28.4,10.0,0000.0,0007.56,0002.94,0002.49
2022-11-01 10:57:00,,0824.1,5.00,0.00,26.6,24.8,00.0,35.6,28.3,10.0,0000.0,0007.38,0003.00,0002.51
2022-11-01 10:58:00,,0824.1,5.00,0.00,26.6,24.8,00.0,35.6,28.3,10.0,0000.0,0007.34,0002.99,0002.52
2022-11-01 10:59:00,,0824.1,5.00,0.00,26.6,24.8,00.0,35.6,28.4,10.0,0000.0,0007.35,0003.00,0002.51
